#timestamp,LO_Frequency,Hit,StdDev 
1459882815.9,286046998.5,N
1459882835.7,286046997.2,N
1459882855.5,286046999.4,N
1459882875.4,286046998.7,N
1459882895.2,286047000.7,N
1459882915.0,286047002.5,N
1459882915.9,286047002.5,N
1459882935.8,286047004.4,N
1459882955.6,286046999.8,N
1459882975.4,286046998.1,N
1459882995.3,286046998.3,N
1459883015.1,286047000.0,N
1459883016.0,286047000.0,N
1459883035.8,286047002.5,N
1459883055.7,286047004.0,N
1459883075.5,286047003.9,N
1459883095.3,286047005.7,N
1459883115.2,286047003.3,N
1459883135.9,286047001.4,N
1459883155.7,286047003.6,N
1459883175.5,286047004.7,N
1459883195.4,286047007.4,Y
1459883215.2,286047001.7,P
1459883235.1,286047000.4,N
1459883236.0,286047000.4,N
1459883255.8,286046998.5,N
1459883275.6,286046997.2,N
1459883295.4,286046998.6,N
1459883315.3,286047000.8,N
1459883335.1,286047001.0,N
1459883355.8,286047000.5,N
1459883375.7,286047000.5,N
1459883395.5,286047000.5,N
1459883415.3,286047001.3,N
1459883435.2,286046999.8,N
1459883455.9,286047005.7,Y
1459883475.7,286047002.0,P
1459883495.6,286047003.8,P
1459883515.4,286047003.5,N
1459883535.2,286047004.8,Y
1459883555.1,286047003.3,P
1459883556.0,286047003.3,P
1459883575.8,286047002.0,P
1459883595.6,286047002.3,Y
1459883615.5,286046999.6,P
1459883635.3,286046997.5,N
1459883655.1,286046997.9,N
1459883675.9,286047000.8,N
1459883695.7,286046999.9,N
1459883715.5,286046998.5,N
1459883735.4,286046998.5,N
1459883755.2,286046998.2,N
1459883775.0,286047001.2,N
1459883775.9,286047001.2,N
1459883795.8,286047001.0,N
1459883815.6,286047000.4,N
1459883835.4,286046998.7,N
1459883855.2,286046999.2,N
1459883875.1,286046998.7,N
1459883876.0,286046998.7,N
1459883895.8,286046997.0,N
1459883915.6,286046996.6,N
1459883935.5,286046996.8,N
1459883955.3,286046999.1,N
1459883975.1,286046994.9,Y
1459883995.9,286046998.0,P
1459884015.7,286046996.0,P
1459884035.5,286046997.2,N
1459884055.4,286046999.4,N
1459884075.2,286046998.6,N
1459884095.0,286046999.5,N
1459884095.9,286046999.5,N
1459884115.8,286046996.7,N
1459884135.6,286046997.0,N
1459884155.4,286046998.6,N
1459884175.3,286047002.5,N
1459884195.1,286047000.0,N
1459884196.0,286047000.0,N
1459884215.8,286046998.5,N
1459884235.7,286046998.4,N
1459884255.5,286046998.5,N
1459884275.3,286046995.5,Y
1459884295.2,286046997.4,P
1459884315.9,286046995.8,P
1459884335.7,286046995.3,P
1459884355.5,286046997.3,N
1459884375.4,286046996.9,N
1459884395.2,286046997.4,N
1459884415.0,286046995.1,Y
1459884416.0,286046995.1,P
1459884435.8,286046996.5,P
1459884455.6,286046999.5,N
1459884475.4,286047000.5,N
1459884495.3,286046999.9,N
1459884515.1,286047001.3,N
1459884535.8,286047001.3,N
1459884555.7,286047001.3,N
1459884575.5,286047001.5,N
1459884595.3,286047001.8,N
1459884615.2,286047000.4,N
1459884635.9,286047002.2,N
1459884655.7,286047002.1,N
1459884675.6,286047000.9,N
1459884695.4,286047000.2,N
1459884715.2,286047003.9,N
1459884735.0,286047001.4,N
1459884735.9,286047001.4,N
1459884755.8,286047004.4,N
1459884775.6,286047003.4,N
1459884795.4,286047004.0,N
1459884815.3,286047004.0,N
1459884835.1,286047001.9,N
1459884855.8,286047003.0,N
1459884875.7,286047005.3,N
1459884895.5,286047005.8,N
1459884915.3,286047005.8,N
1459884935.2,286047005.1,N
1459884955.9,286047007.0,N
1459884975.7,286047007.9,N
1459884995.6,286047006.8,N
1459885015.4,286047010.2,Y
1459885035.2,286047007.2,P
1459885055.1,286047010.1,P
1459885056.0,286047010.1,P
1459885075.8,286047008.4,N
1459885095.6,286047010.7,Y
1459885115.5,286047003.2,P
1459885135.3,286047003.8,N
1459885155.1,286047005.5,N
1459885175.8,286047003.7,N
1459885195.7,286047003.7,N
1459885215.5,286047003.1,N
1459885235.3,286047005.6,Y
1459885255.2,286047000.8,P
1459885275.0,286047000.5,N
1459885275.9,286047000.5,N
1459885295.7,286046999.5,N
1459885315.6,286046994.9,Y
1459885335.4,286046993.9,P
1459885355.2,286046996.4,N
1459885375.1,286046994.8,N
1459885376.0,286046994.8,N
1459885395.8,286046993.3,N
1459885415.6,286046994.0,N
1459885435.5,286046994.1,N
1459885455.3,286046995.5,N
1459885475.1,286046993.6,N
1459885495.9,286046993.6,N
1459885515.7,286046990.2,Y
1459885535.5,286046995.7,P
1459885555.4,286046997.7,P
1459885575.2,286046995.5,P
1459885595.0,286046995.0,Y
1459885595.9,286046995.0,P
1459885615.8,286046998.9,N
1459885635.6,286046999.4,N
1459885655.4,286046996.6,N
1459885675.3,286046995.8,N
1459885695.1,286046996.7,N
1459885696.0,286046996.7,N
1459885715.8,286046995.3,Y
1459885735.7,286046998.6,P
1459885755.5,286047000.6,N
1459885775.3,286047004.1,N
1459885795.2,286047002.9,N
1459885815.9,286047007.2,N
1459885835.7,286047005.1,N
1459885855.6,286047005.3,N
1459885875.4,286047004.0,N
1459885895.2,286047003.8,N
1459885915.0,286046999.8,N
1459885916.0,286046999.8,N
1459885935.8,286047002.1,N
1459885955.6,286046998.4,N
1459885975.4,286047002.5,N
1459885995.3,286047001.4,N
1459886015.1,286047001.8,N
1459886035.8,286047002.6,N
1459886055.7,286047000.2,N
1459886075.5,286047002.2,N
1459886095.3,286047001.9,N
1459886115.2,286047001.8,N
1459886135.9,286047004.2,N
1459886155.7,286047001.4,N
1459886175.6,286047002.3,N
1459886195.4,286047002.6,N
1459886215.2,286047002.0,N
1459886235.0,286047004.0,N
1459886236.0,286047004.0,N
1459886255.8,286047004.9,N
1459886275.6,286047007.6,Y
1459886295.5,286047001.5,P
1459886315.3,286047002.9,P
1459886335.1,286047003.0,P
1459886355.8,286047000.4,N
1459886375.7,286046998.9,N
1459886395.5,286047001.1,N
